Private Wetterstation Wechselburg
Wetterdaten: Mittwoch, 09.11.2011
Datum Zeit Temp. +2m Bodentemp. Temp.+5cm Temp. Wind Windchill X Diff Temp. Feuchte +2m Feuchte +5cm Sonnenschein Luftdruck Regen Wind Richtung Richtung Sonnenschein UV Taupunkt Windchill Windben
09.11.2011 00:00 1,5 C 13,4 C 2,1 C 1,1 C 0,4 C 0,0 C 90 % 91 % 0 % 1021,9 hPa 0,0 l/m 0,0 km/h (0 Bft) W-SW 247 0 min 0,0 UV-I 0,0 C 0,4 C 0,0 km/h (0 Bft)
09.11.2011 00:10 1,3 C 13,4 C 1,9 C 0,9 C 0,1 C 0,0 C 90 % 90 % 0 % 1021,9 hPa 0,0 l/m 0,0 km/h (0 Bft) N 0 0 min 0,0 UV-I -0,2 C 0,1 C 0,0 km/h (0 Bft)
09.11.2011 00:20 1,2 C 13,4 C 1,9 C 0,8 C 0,0 C 0,0 C 90 % 91 % 0 % 1021,5 hPa 0,0 l/m 0,0 km/h (0 Bft) SW 225 0 min 0,0 UV-I -0,3 C 0,0 C 0,0 km/h (0 Bft)
09.11.2011 00:25 1,0 C 13,4 C 1,9 C 0,7 C 0,0 C 0,0 C 90 % 91 % 0 % 1021,5 hPa 0,0 l/m 0,0 km/h (0 Bft) SW 225 0 min 0,0 UV-I -0,5 C 0,0 C 0,0 km/h (0 Bft)
09.11.2011 00:30 1,0 C 13,3 C 1,9 C 0,6 C -0,2 C 0,0 C 90 % 91 % 0 % 1021,5 hPa 0,0 l/m 0,0 km/h (0 Bft) SW 225 0 min 0,0 UV-I -0,5 C -0,2 C 0,0 km/h (0 Bft)
09.11.2011 00:35 0,9 C 13,3 C 1,6 C 0,5 C -0,3 C 0,0 C 90 % 90 % 0 % 1021,5 hPa 0,0 l/m 0,0 km/h (0 Bft) W-SW 247 0 min 0,0 UV-I -0,6 C -0,3 C 0,0 km/h (0 Bft)
09.11.2011 00:40 0,8 C 13,3 C 1,6 C 0,4 C -0,3 C 0,0 C 90 % 90 % 0 % 1021,5 hPa 0,0 l/m 0,0 km/h (0 Bft) W-SW 247 0 min 0,0 UV-I -0,6 C -0,3 C 0,0 km/h (0 Bft)
09.11.2011 00:45 0,8 C 13,3 C 1,6 C 0,4 C -0,3 C 0,0 C 90 % 91 % 0 % 1021,5 hPa 0,0 l/m 0,0 km/h (0 Bft) W-SW 247 0 min 0,0 UV-I -0,6 C -0,3 C 0,0 km/h (0 Bft)
09.11.2011 00:50 0,7 C 13,3 C 1,6 C 0,4 C -0,2 C 0,0 C 90 % 91 % 0 % 1021,5 hPa 0,0 l/m 0,0 km/h (0 Bft) W-SW 247 0 min 0,0 UV-I -0,7 C -0,2 C 0,0 km/h (0 Bft)
09.11.2011 00:55 0,7 C 13,3 C 1,6 C 0,5 C 0,0 C 0,0 C 90 % 91 % 0 % 1021,5 hPa 0,0 l/m 0,0 km/h (0 Bft) W-SW 247 0 min 0,0 UV-I -0,7 C 0,0 C 0,0 km/h (0 Bft)
09.11.2011 01:00 0,8 C 13,3 C 1,6 C 0,5 C 0,0 C 0,0 C 90 % 91 % 0 % 1022,0 hPa 0,0 l/m 0,0 km/h (0 Bft) W-SW 247 0 min 0,0 UV-I -0,6 C 0,0 C 0,0 km/h (0 Bft)
09.11.2011 01:04 0,7 C 13,3 C 1,6 C 0,5 C 0,0 C 0,0 C 91 % 91 % 0 % 1022,0 hPa 0,0 l/m 0,0 km/h (0 Bft) S-SO 157 0 min 0,0 UV-I -0,6 C 0,0 C 0,0 km/h (0 Bft)
09.11.2011 01:09 0,8 C 13,3 C 1,4 C 0,6 C 0,1 C 0,0 C 91 % 91 % 0 % 1022,0 hPa 0,0 l/m 0,0 km/h (0 Bft) O 90 0 min 0,0 UV-I -0,5 C 0,1 C 0,0 km/h (0 Bft)
09.11.2011 01:14 1,0 C 13,3 C 1,5 C 0,8 C 0,4 C 0,0 C 91 % 91 % 0 % 1022,0 hPa 0,0 l/m 0,5 km/h (0 Bft) O 90 0 min 0,0 UV-I -0,3 C 0,4 C 0,0 km/h (0 Bft)
09.11.2011 01:19 0,9 C 13,2 C 1,5 C 0,7 C 0,4 C 0,0 C 91 % 91 % 0 % 1021,4 hPa 0,0 l/m 0,5 km/h (0 Bft) S-SW 202 0 min 0,0 UV-I -0,4 C 0,4 C 0,0 km/h (0 Bft)
09.11.2011 01:25 0,9 C 13,2 C 1,5 C 0,7 C 0,3 C 0,0 C 91 % 91 % 0 % 1021,4 hPa 0,0 l/m 0,2 km/h (0 Bft) NW 315 0 min 0,0 UV-I -0,4 C 0,3 C 0,0 km/h (0 Bft)
09.11.2011 01:30 0,8 C 13,2 C 1,5 C 0,6 C 0,2 C 0,0 C 91 % 91 % 0 % 1021,4 hPa 0,0 l/m 0,2 km/h (0 Bft) N 360 0 min 0,0 UV-I -0,5 C 0,2 C 0,0 km/h (0 Bft)
09.11.2011 01:35 0,8 C 13,2 C 1,3 C 0,6 C 0,1 C 0,0 C 91 % 91 % 0 % 1021,4 hPa 0,0 l/m 0,0 km/h (0 Bft) N 360 0 min 0,0 UV-I -0,5 C 0,1 C 0,0 km/h (0 Bft)
09.11.2011 01:40 0,8 C 13,2 C 1,5 C 0,6 C 0,1 C 0,0 C 91 % 91 % 0 % 1021,9 hPa 0,0 l/m 0,0 km/h (0 Bft) NW 315 0 min 0,0 UV-I -0,5 C 0,1 C 0,0 km/h (0 Bft)
09.11.2011 01:45 0,7 C 13,2 C 1,3 C 0,5 C 0,0 C 0,0 C 91 % 91 % 0 % 1021,9 hPa 0,0 l/m 0,5 km/h (0 Bft) SW 225 0 min 0,0 UV-I -0,6 C 0,0 C 0,0 km/h (0 Bft)
09.11.2011 01:50 0,6 C 13,2 C 1,2 C 0,3 C -0,3 C 0,0 C 91 % 91 % 0 % 1021,9 hPa 0,0 l/m 0,5 km/h (0 Bft) W-SW 247 0 min 0,0 UV-I -0,7 C -0,3 C 2,6 km/h (1 Bft)
09.11.2011 01:55 0,5 C 13,1 C 1,2 C 0,2 C -0,5 C 0,0 C 91 % 91 % 0 % 1021,9 hPa 0,0 l/m 0,0 km/h (0 Bft) W-SW 247 0 min 0,0 UV-I -0,8 C -0,5 C 0,0 km/h (0 Bft)
09.11.2011 02:00 0,3 C 13,1 C 1,1 C 0,0 C -0,6 C 0,0 C 91 % 91 % 0 % 1021,9 hPa 0,0 l/m 0,0 km/h (0 Bft) W-SW 247 0 min 0,0 UV-I -1,0 C -0,6 C 0,0 km/h (0 Bft)
09.11.2011 02:10 0,1 C 13,1 C 0,9 C -0,2 C -0,9 C 0,0 C 91 % 91 % 0 % 1021,9 hPa 0,0 l/m 0,0 km/h (0 Bft) N 0 0 min 0,0 UV-I -1,2 C -0,9 C 0,0 km/h (0 Bft)
09.11.2011 02:20 0,0 C 13,1 C 0,9 C -0,3 C -0,9 C 0,0 C 91 % 91 % 0 % 1022,2 hPa 0,0 l/m 0,2 km/h (0 Bft) S 180 0 min 0,0 UV-I -1,3 C -0,9 C 0,0 km/h (0 Bft)
09.11.2011 02:25 0,0 C 13,1 C 1,0 C -0,2 C -0,7 C 0,0 C 91 % 91 % 0 % 1022,2 hPa 0,0 l/m 0,0 km/h (0 Bft) S 180 0 min 0,0 UV-I -1,3 C -0,7 C 0,0 km/h (0 Bft)
09.11.2011 02:30 0,0 C 13,1 C 0,9 C -0,2 C -0,7 C 0,0 C 91 % 91 % 0 % 1022,2 hPa 0,0 l/m 0,0 km/h (0 Bft) W-SW 247 0 min 0,0 UV-I -1,3 C -0,7 C 0,0 km/h (0 Bft)
09.11.2011 02:35 0,0 C 13,1 C 0,8 C -0,2 C -0,7 C 0,0 C 91 % 91 % 0 % 1022,2 hPa 0,0 l/m 0,0 km/h (0 Bft) S 180 0 min 0,0 UV-I -1,3 C -0,7 C 0,0 km/h (0 Bft)
09.11.2011 02:40 0,0 C 13,1 C 0,7 C -0,2 C -0,7 C 0,0 C 91 % 91 % 0 % 1021,6 hPa 0,0 l/m 0,0 km/h (0 Bft) S 180 0 min 0,0 UV-I -1,3 C -0,7 C 0,0 km/h (0 Bft)
09.11.2011 02:45 0,0 C 13,1 C 0,7 C -0,2 C -0,7 C 0,0 C 91 % 91 % 0 % 1021,6 hPa 0,0 l/m 0,0 km/h (0 Bft) S 180 0 min 0,0 UV-I -1,3 C -0,7 C 0,0 km/h (0 Bft)
09.11.2011 02:50 0,1 C 13,0 C 0,7 C -0,2 C -0,7 C 0,0 C 91 % 91 % 0 % 1021,6 hPa 0,0 l/m 0,0 km/h (0 Bft) S 180 0 min 0,0 UV-I -1,2 C -0,7 C 0,0 km/h (0 Bft)
09.11.2011 02:55 0,0 C 13,0 C 0,7 C -0,3 C -0,8 C 0,0 C 91 % 91 % 0 % 1021,6 hPa 0,0 l/m 0,0 km/h (0 Bft) S 180 0 min 0,0 UV-I -1,3 C -0,8 C 0,0 km/h (0 Bft)
09.11.2011 03:00 0,1 C 13,0 C 0,5 C -0,2 C -0,8 C 0,0 C 91 % 91 % 0 % 1021,9 hPa 0,0 l/m 0,0 km/h (0 Bft) O 90 0 min 0,0 UV-I -1,2 C -0,8 C 0,0 km/h (0 Bft)
09.11.2011 03:11 0,0 C 13,0 C 0,5 C -0,3 C -0,9 C 0,0 C 91 % 91 % 0 % 1021,9 hPa 0,0 l/m 0,0 km/h (0 Bft) N 0 0 min 0,0 UV-I -1,3 C -0,9 C 0,0 km/h (0 Bft)
09.11.2011 03:20 -0,2 C 13,0 C 0,5 C -0,5 C -1,2 C 0,0 C 91 % 91 % 0 % 1021,6 hPa 0,0 l/m 0,0 km/h (0 Bft) S-SW 202 0 min 0,0 UV-I -1,5 C -1,2 C 0,0 km/h (0 Bft)
09.11.2011 03:25 -0,3 C 12,9 C 0,6 C -0,6 C -1,3 C 0,0 C 91 % 92 % 0 % 1021,6 hPa 0,0 l/m 0,0 km/h (0 Bft) S-SW 202 0 min 0,0 UV-I -1,6 C -1,3 C 0,0 km/h (0 Bft)
09.11.2011 03:30 -0,3 C 12,9 C 0,7 C -0,6 C -1,3 C 0,0 C 91 % 92 % 0 % 1021,6 hPa 0,0 l/m 0,0 km/h (0 Bft) W-SW 247 0 min 0,0 UV-I -1,6 C -1,3 C 0,0 km/h (0 Bft)
09.11.2011 03:35 -0,4 C 12,9 C 0,5 C -0,7 C -1,4 C 0,0 C 91 % 92 % 0 % 1021,6 hPa 0,0 l/m 0,0 km/h (0 Bft) W-SW 247 0 min 0,0 UV-I -1,7 C -1,4 C 0,0 km/h (0 Bft)
09.11.2011 03:40 -0,3 C 12,9 C 0,5 C -0,7 C -1,4 C 0,0 C 91 % 92 % 0 % 1021,4 hPa 0,0 l/m 0,0 km/h (0 Bft) S 180 0 min 0,0 UV-I -1,6 C -1,4 C 0,0 km/h (0 Bft)
09.11.2011 03:45 -0,5 C 12,9 C 0,3 C -0,8 C -1,4 C 0,0 C 91 % 91 % 0 % 1021,4 hPa 0,0 l/m 0,0 km/h (0 Bft) O 90 0 min 0,0 UV-I -1,8 C -1,4 C 0,0 km/h (0 Bft)
09.11.2011 03:50 -0,5 C 12,9 C 0,1 C -0,8 C -1,4 C 0,0 C 91 % 91 % 0 % 1021,4 hPa 0,0 l/m 0,2 km/h (0 Bft) O 90 0 min 0,0 UV-I -1,8 C -1,4 C 0,0 km/h (0 Bft)
09.11.2011 03:55 -0,5 C 13,0 C 0,1 C -0,7 C -1,2 C 0,0 C 91 % 91 % 0 % 1021,4 hPa 0,0 l/m 0,2 km/h (0 Bft) O-NO 67 0 min 0,0 UV-I -1,8 C -1,2 C 0,0 km/h (0 Bft)
09.11.2011 04:00 -0,5 C 13,0 C 0,0 C -0,8 C -1,3 C 0,0 C 91 % 91 % 0 % 1021,4 hPa 0,0 l/m 0,0 km/h (0 Bft) O-SO 112 0 min 0,0 UV-I -1,8 C -1,3 C 0,0 km/h (0 Bft)
09.11.2011 04:11 -0,5 C 13,0 C 0,3 C -0,8 C -1,5 C 0,0 C 91 % 92 % 0 % 1021,4 hPa 0,0 l/m 0,0 km/h (0 Bft) N 0 0 min 0,0 UV-I -1,8 C -1,5 C 0,0 km/h (0 Bft)
09.11.2011 04:20 -0,7 C 12,9 C 0,1 C -1,0 C -1,6 C 0,0 C 91 % 92 % 0 % 1021,4 hPa 0,0 l/m 0,0 km/h (0 Bft) N 360 0 min 0,0 UV-I -2,0 C -1,6 C 0,0 km/h (0 Bft)
09.11.2011 04:25 -0,7 C 12,9 C -0,1 C -1,0 C -1,7 C 0,0 C 91 % 91 % 0 % 1021,4 hPa 0,0 l/m 0,0 km/h (0 Bft) N 360 0 min 0,0 UV-I -2,0 C -1,7 C 0,0 km/h (0 Bft)
09.11.2011 04:30 -0,7 C 12,9 C -0,1 C -1,0 C -1,6 C 0,0 C 91 % 91 % 0 % 1021,4 hPa 0,0 l/m 0,0 km/h (0 Bft) O-NO 67 0 min 0,0 UV-I -2,0 C -1,6 C 0,0 km/h (0 Bft)
09.11.2011 04:35 -0,7 C 12,9 C -0,1 C -1,0 C -1,6 C 0,0 C 91 % 92 % 0 % 1021,4 hPa 0,0 l/m 0,0 km/h (0 Bft) O-NO 67 0 min 0,0 UV-I -2,0 C -1,6 C 0,0 km/h (0 Bft)
09.11.2011 04:40 -0,7 C 12,9 C -0,1 C -1,0 C -1,6 C 0,0 C 91 % 92 % 0 % 1021,8 hPa 0,0 l/m 0,0 km/h (0 Bft) NW 315 0 min 0,0 UV-I -2,0 C -1,6 C 0,0 km/h (0 Bft)
09.11.2011 04:45 -0,8 C 12,9 C 0,0 C -1,1 C -1,7 C 0,0 C 91 % 92 % 0 % 1021,8 hPa 0,0 l/m 0,0 km/h (0 Bft) W 270 0 min 0,0 UV-I -2,1 C -1,7 C 0,0 km/h (0 Bft)
09.11.2011 04:50 -0,8 C 12,9 C 0,0 C -1,1 C -1,8 C 0,0 C 91 % 92 % 0 % 1021,8 hPa 0,0 l/m 0,0 km/h (0 Bft) W 270 0 min 0,0 UV-I -2,1 C -1,8 C 0,0 km/h (0 Bft)
09.11.2011 04:55 -0,9 C 12,9 C -0,1 C -1,2 C -1,9 C 0,0 C 91 % 92 % 0 % 1021,8 hPa 0,0 l/m 0,0 km/h (0 Bft) NW 315 0 min 0,0 UV-I -2,2 C -1,9 C 0,0 km/h (0 Bft)
09.11.2011 05:00 -0,9 C 12,7 C -0,1 C -1,2 C -1,9 C 0,0 C 91 % 92 % 0 % 1022,2 hPa 0,0 l/m 0,0 km/h (0 Bft) NW 315 0 min 0,0 UV-I -2,2 C -1,9 C 0,0 km/h (0 Bft)
09.11.2011 05:11 -0,9 C 12,7 C -0,3 C -1,0 C -1,2 C 0,0 C 92 % 92 % 0 % 1022,2 hPa 0,0 l/m 0,0 km/h (0 Bft) N 0 0 min 0,0 UV-I -2,0 C -1,2 C 0,0 km/h (0 Bft)
09.11.2011 05:20 -0,9 C 12,7 C -0,2 C -1,1 C -1,5 C 0,0 C 92 % 92 % 0 % 1022,2 hPa 0,0 l/m 0,0 km/h (0 Bft) NW 315 0 min 0,0 UV-I -2,0 C -1,5 C 0,0 km/h (0 Bft)
09.11.2011 05:25 -0,9 C 12,7 C -0,1 C -1,1 C -1,6 C 0,0 C 92 % 92 % 0 % 1022,2 hPa 0,0 l/m 0,0 km/h (0 Bft) NW 315 0 min 0,0 UV-I -2,0 C -1,6 C 0,0 km/h (0 Bft)
09.11.2011 05:30 -1,1 C 12,7 C -0,1 C -1,3 C -1,6 C 0,0 C 92 % 92 % 0 % 1022,2 hPa 0,0 l/m 0,0 km/h (0 Bft) NW 315 0 min 0,0 UV-I -2,2 C -1,6 C 0,0 km/h (0 Bft)
09.11.2011 05:35 -1,1 C 12,7 C -0,1 C -1,3 C -1,7 C 0,0 C 92 % 92 % 0 % 1022,2 hPa 0,0 l/m 0,0 km/h (0 Bft) NW 315 0 min 0,0 UV-I -2,2 C -1,7 C 0,0 km/h (0 Bft)
09.11.2011 05:40 -1,1 C 12,7 C -0,1 C -1,3 C -1,8 C 0,0 C 92 % 92 % 0 % 1022,2 hPa 0,0 l/m 0,0 km/h (0 Bft) NW 315 0 min 0,0 UV-I -2,2 C -1,8 C 0,0 km/h (0 Bft)
09.11.2011 05:45 -1,2 C 12,7 C -0,1 C -1,5 C -2,0 C 0,0 C 92 % 92 % 0 % 1022,2 hPa 0,0 l/m 0,0 km/h (0 Bft) NW 315 0 min 0,0 UV-I -2,3 C -2,0 C 0,0 km/h (0 Bft)
09.11.2011 05:50 -1,2 C 12,6 C -0,1 C -1,5 C -2,0 C 0,0 C 92 % 92 % 0 % 1022,2 hPa 0,0 l/m 0,0 km/h (0 Bft) NW 315 0 min 0,0 UV-I -2,3 C -2,0 C 0,0 km/h (0 Bft)
09.11.2011 05:55 -1,2 C 12,6 C -0,1 C -1,5 C -2,0 C 0,0 C 92 % 92 % 0 % 1022,2 hPa 0,0 l/m 0,0 km/h (0 Bft) NW 315 0 min 0,0 UV-I -2,3 C -2,0 C 0,0 km/h (0 Bft)
09.11.2011 06:00 -1,2 C 12,6 C -0,1 C -1,5 C -2,1 C 0,0 C 92 % 92 % 0 % 1022,5 hPa 0,0 l/m 0,0 km/h (0 Bft) NW 315 0 min 0,0 UV-I -2,3 C -2,1 C 0,0 km/h (0 Bft)
09.11.2011 06:10 -1,2 C 12,6 C -0,3 C -1,5 C -2,1 C 0,0 C 92 % 92 % 0 % 1022,5 hPa 0,0 l/m 0,0 km/h (0 Bft) N 0 0 min 0,0 UV-I -2,3 C -2,1 C 0,0 km/h (0 Bft)
09.11.2011 06:20 -1,3 C 12,6 C -0,4 C -1,6 C -2,2 C 0,0 C 92 % 92 % 0 % 1021,6 hPa 0,0 l/m 0,0 km/h (0 Bft) NW 315 0 min 0,0 UV-I -2,4 C -2,2 C 0,0 km/h (0 Bft)
09.11.2011 06:25 -1,3 C 12,6 C -0,5 C -1,6 C -2,2 C 0,0 C 92 % 92 % 0 % 1021,6 hPa 0,0 l/m 0,0 km/h (0 Bft) NW 315 0 min 0,0 UV-I -2,4 C -2,2 C 0,0 km/h (0 Bft)
09.11.2011 06:30 -1,3 C 12,6 C -0,5 C -1,6 C -2,3 C 0,0 C 92 % 92 % 0 % 1021,6 hPa 0,0 l/m 0,0 km/h (0 Bft) NW 315 0 min 0,0 UV-I -2,4 C -2,3 C 0,0 km/h (0 Bft)
09.11.2011 06:35 -1,3 C 12,5 C -0,3 C -1,6 C -2,2 C 0,0 C 92 % 92 % 0 % 1021,6 hPa 0,0 l/m 0,0 km/h (0 Bft) NW 315 0 min 0,0 UV-I -2,4 C -2,2 C 0,0 km/h (0 Bft)
09.11.2011 06:40 -1,3 C 12,5 C -0,4 C -1,6 C -2,3 C 0,0 C 92 % 92 % 0 % 1021,4 hPa 0,0 l/m 0,0 km/h (0 Bft) NW 315 0 min 0,0 UV-I -2,4 C -2,3 C 0,0 km/h (0 Bft)
09.11.2011 06:45 -1,4 C 12,5 C -0,5 C -1,7 C -2,3 C 0,0 C 92 % 92 % 0 % 1021,4 hPa 0,0 l/m 0,0 km/h (0 Bft) NW 315 0 min 0,0 UV-I -2,5 C -2,3 C 0,0 km/h (0 Bft)
09.11.2011 06:50 -1,3 C 12,5 C -0,5 C -1,6 C -2,3 C 0,0 C 92 % 92 % 0 % 1021,4 hPa 0,0 l/m 0,0 km/h (0 Bft) NW 315 0 min 0,0 UV-I -2,4 C -2,3 C 0,0 km/h (0 Bft)
09.11.2011 06:55 -1,5 C 12,5 C -0,5 C -1,8 C -2,4 C 0,0 C 92 % 92 % 0 % 1021,4 hPa 0,0 l/m 0,0 km/h (0 Bft) NW 315 0 min 0,0 UV-I -2,6 C -2,4 C 0,0 km/h (0 Bft)
09.11.2011 07:00 -1,5 C 12,5 C -0,5 C -1,8 C -2,4 C 0,0 C 92 % 92 % 0 % 1021,6 hPa 0,0 l/m 0,0 km/h (0 Bft) NW 315 0 min 0,0 UV-I -2,6 C -2,4 C 0,0 km/h (0 Bft)
09.11.2011 07:11 -1,5 C 12,5 C -0,4 C -1,8 C -2,3 C 0,0 C 92 % 92 % 0 % 1021,6 hPa 0,0 l/m 0,0 km/h (0 Bft) N 0 0 min 0,0 UV-I -2,6 C -2,3 C 0,0 km/h (0 Bft)
09.11.2011 07:20 -1,5 C 12,5 C -0,5 C -1,8 C -2,3 C 0,0 C 92 % 92 % 0 % 1022,4 hPa 0,0 l/m 0,0 km/h (0 Bft) NW 315 0 min 0,0 UV-I -2,6 C -2,3 C 0,0 km/h (0 Bft)
09.11.2011 07:25 -1,4 C 12,4 C -0,7 C -1,6 C -2,0 C 0,0 C 92 % 92 % 0 % 1022,4 hPa 0,0 l/m 0,3 km/h (0 Bft) NW 315 0 min 0,0 UV-I -2,5 C -2,0 C 1,8 km/h (1 Bft)
09.11.2011 07:30 -1,3 C 12,4 C -0,5 C -1,5 C -1,8 C 0,0 C 92 % 92 % 0 % 1022,4 hPa 0,0 l/m 0,6 km/h (0 Bft) NW 315 0 min 0,0 UV-I -2,4 C -1,8 C 1,8 km/h (1 Bft)
09.11.2011 07:35 -1,1 C 12,4 C -0,5 C -1,3 C -1,6 C 0,0 C 92 % 92 % 0 % 1022,4 hPa 0,0 l/m 0,8 km/h (0 Bft) NW 315 0 min 0,0 UV-I -2,2 C -1,6 C 0,0 km/h (0 Bft)
09.11.2011 07:40 -0,9 C 12,4 C -0,5 C -1,1 C -1,4 C 0,0 C 92 % 92 % 0 % 1022,0 hPa 0,0 l/m 0,5 km/h (0 Bft) NW 315 0 min 0,0 UV-I -2,0 C -1,4 C 0,0 km/h (0 Bft)
09.11.2011 07:45 -0,9 C 12,4 C -0,4 C -1,1 C -1,4 C 0,0 C 92 % 92 % 0 % 1022,0 hPa 0,0 l/m 0,0 km/h (0 Bft) NW 315 0 min 0,0 UV-I -2,0 C -1,4 C 0,0 km/h (0 Bft)
09.11.2011 07:50 -0,9 C 12,4 C -0,4 C -1,1 C -1,4 C 0,0 C 92 % 92 % 0 % 1022,0 hPa 0,0 l/m 0,3 km/h (0 Bft) NW 315 0 min 0,0 UV-I -2,0 C -1,4 C 2,1 km/h (1 Bft)
09.11.2011 07:55 -1,1 C 12,4 C -0,3 C -1,2 C -1,5 C 0,0 C 92 % 92 % 0 % 1022,0 hPa 0,0 l/m 0,5 km/h (0 Bft) NW 315 0 min 0,0 UV-I -2,2 C -1,5 C 0,0 km/h (0 Bft)
09.11.2011 08:00 -1,1 C 12,4 C -0,3 C -1,2 C -1,5 C 0,0 C 92 % 92 % 0 % 1022,4 hPa 0,0 l/m 0,3 km/h (0 Bft) NW 315 0 min 0,0 UV-I -2,2 C -1,5 C 0,0 km/h (0 Bft)
09.11.2011 08:15 -0,9 C 12,4 C -0,2 C -0,9 C -0,9 C 0,0 C 92 % 92 % 0 % 1022,4 hPa 0,0 l/m 0,0 km/h (0 Bft) NW 315 0 min 0,0 UV-I -2,0 C -0,9 C 0,0 km/h (0 Bft)
09.11.2011 08:16 -0,9 C 12,4 C -0,2 C -0,9 C -0,9 C 0,0 C 92 % 92 % 0 % 1022,4 hPa 0,0 l/m 0,0 km/h (0 Bft) NW 315 0 min 0,0 UV-I -2,0 C -0,9 C 0,0 km/h (0 Bft)
09.11.2011 08:20 -0,9 C 12,4 C -0,1 C -0,9 C -0,9 C 0,0 C 92 % 92 % 0 % 1022,5 hPa 0,0 l/m 0,0 km/h (0 Bft) NW 315 0 min 0,0 UV-I -2,0 C -0,9 C 0,0 km/h (0 Bft)
09.11.2011 08:25 -1,0 C 12,4 C -0,1 C -1,0 C -1,0 C 0,0 C 92 % 92 % 0 % 1022,5 hPa 0,0 l/m 0,3 km/h (0 Bft) NW 315 0 min 0,0 UV-I -2,1 C -1,0 C 0,0 km/h (0 Bft)
09.11.2011 08:30 -1,0 C 12,4 C -0,1 C -0,9 C -0,9 C 0,1 C 92 % 92 % 3 % 1022,5 hPa 0,0 l/m 0,5 km/h (0 Bft) NW 315 0 min 0,0 UV-I -2,1 C -0,9 C 0,0 km/h (0 Bft)
09.11.2011 08:35 -0,9 C 12,4 C -0,1 C -0,9 C -0,9 C 0,0 C 92 % 92 % 0 % 1022,5 hPa 0,0 l/m 0,2 km/h (0 Bft) NW 315 0 min 0,0 UV-I -2,0 C -0,9 C 0,0 km/h (0 Bft)
09.11.2011 08:40 -0,9 C 12,3 C 0,0 C -0,9 C -0,9 C 0,0 C 92 % 92 % 0 % 1022,7 hPa 0,0 l/m 0,0 km/h (0 Bft) NW 315 0 min 0,0 UV-I -2,0 C -0,9 C 0,0 km/h (0 Bft)
09.11.2011 08:45 -0,9 C 12,3 C 0,2 C -0,8 C -0,8 C 0,1 C 92 % 92 % 3 % 1022,7 hPa 0,0 l/m 0,0 km/h (0 Bft) NW 315 0 min 0,0 UV-I -2,0 C -0,8 C 0,0 km/h (0 Bft)
09.11.2011 08:50 -0,8 C 12,3 C 0,4 C -0,6 C -0,6 C 0,2 C 92 % 92 % 5 % 1022,7 hPa 0,0 l/m 0,0 km/h (0 Bft) NW 315 0 min 0,0 UV-I -1,9 C -0,6 C 0,0 km/h (0 Bft)
09.11.2011 08:55 -0,7 C 12,4 C 0,4 C -0,4 C -0,4 C 0,3 C 92 % 92 % 8 % 1022,7 hPa 0,0 l/m 0,0 km/h (0 Bft) NW 315 0 min 0,0 UV-I -1,8 C -0,4 C 0,0 km/h (0 Bft)
09.11.2011 09:00 -0,7 C 12,3 C 0,4 C -0,3 C -0,3 C 0,4 C 92 % 92 % 11 % 1022,9 hPa 0,0 l/m 0,0 km/h (0 Bft) NW 315 0 min 0,0 UV-I -1,8 C -0,3 C 0,0 km/h (0 Bft)
09.11.2011 09:12 -0,2 C 12,4 C 0,7 C 0,0 C 0,0 C 0,2 C 92 % 92 % 5 % 1022,9 hPa 0,0 l/m 0,0 km/h (0 Bft) N 0 0 min 0,0 UV-I -1,3 C 0,0 C 0,0 km/h (0 Bft)
09.11.2011 09:20 0,3 C 12,3 C 0,9 C 0,7 C 0,7 C 0,4 C 93 % 92 % 11 % 1022,8 hPa 0,0 l/m 0,0 km/h (0 Bft) NW 315 0 min 0,0 UV-I -0,7 C 0,7 C 0,0 km/h (0 Bft)
09.11.2011 09:25 0,5 C 12,3 C 1,2 C 1,3 C 1,3 C 0,8 C 93 % 93 % 21 % 1022,8 hPa 0,0 l/m 0,0 km/h (0 Bft) NW 315 0 min 0,0 UV-I -0,5 C 1,3 C 0,0 km/h (0 Bft)
09.11.2011 09:30 0,8 C 12,3 C 1,4 C 1,4 C 1,4 C 0,6 C 93 % 93 % 16 % 1022,8 hPa 0,0 l/m 0,2 km/h (0 Bft) W-NW 292 0 min 0,0 UV-I -0,2 C 1,4 C 2,6 km/h (1 Bft)
09.11.2011 09:35 0,9 C 12,3 C 1,5 C 1,4 C 1,4 C 0,5 C 93 % 93 % 13 % 1022,8 hPa 0,0 l/m 0,5 km/h (0 Bft) W-SW 247 0 min 0,0 UV-I -0,1 C 1,4 C 0,0 km/h (0 Bft)
09.11.2011 09:40 1,1 C 12,2 C 1,6 C 1,5 C 1,5 C 0,4 C 93 % 93 % 11 % 1022,9 hPa 0,0 l/m 0,5 km/h (0 Bft) W-SW 247 0 min 0,0 UV-I 0,1 C 1,5 C 0,0 km/h (0 Bft)
09.11.2011 09:45 1,3 C 12,2 C 1,9 C 2,5 C 2,5 C 1,2 C 93 % 93 % 32 % 1022,9 hPa 0,0 l/m 0,2 km/h (0 Bft) W-SW 247 0 min 0,0 UV-I 0,3 C 2,5 C 1,6 km/h (1 Bft)
09.11.2011 09:50 1,4 C 12,2 C 2,0 C 2,9 C 2,9 C 1,5 C 93 % 93 % 39 % 1022,9 hPa 0,0 l/m 0,5 km/h (0 Bft) W-SW 247 0 min 0,0 UV-I 0,4 C 2,9 C 2,3 km/h (1 Bft)
09.11.2011 09:55 1,6 C 12,2 C 2,2 C 2,9 C 2,9 C 1,3 C 93 % 93 % 34 % 1022,9 hPa 0,0 l/m 0,8 km/h (0 Bft) W-SW 247 0 min 0,0 UV-I 0,6 C 2,9 C 1,9 km/h (1 Bft)
09.11.2011 10:00 1,9 C 12,2 C 2,3 C 3,0 C 3,0 C 1,1 C 93 % 93 % 29 % 1022,8 hPa 0,0 l/m 0,6 km/h (0 Bft) SW 225 0 min 0,0 UV-I 0,9 C 3,0 C 0,0 km/h (0 Bft)
09.11.2011 10:11 2,4 C 12,3 C 2,7 C 5,2 C 5,2 C 2,8 C 93 % 93 % 74 % 1022,8 hPa 0,0 l/m 0,0 km/h (0 Bft) N 0 0 min 0,0 UV-I 1,4 C 5,2 C 0,0 km/h (0 Bft)
09.11.2011 10:20 3,1 C 12,3 C 3,3 C 5,9 C 5,9 C 2,8 C 94 % 93 % 74 % 1023,0 hPa 0,0 l/m 1,3 km/h (1 Bft) W-SW 247 0 min 0,0 UV-I 2,2 C 5,9 C 1,8 km/h (1 Bft)
09.11.2011 10:25 3,3 C 12,3 C 3,6 C 5,8 C 5,8 C 2,5 C 94 % 94 % 66 % 1023,0 hPa 0,0 l/m 1,4 km/h (1 Bft) SW 225 0 min 0,0 UV-I 2,4 C 5,8 C 0,0 km/h (0 Bft)
09.11.2011 10:30 3,5 C 12,2 C 3,9 C 5,8 C 5,8 C 2,3 C 94 % 94 % 61 % 1023,0 hPa 0,0 l/m 1,3 km/h (1 Bft) SW 225 0 min 0,0 UV-I 2,6 C 5,8 C 3,1 km/h (1 Bft)
09.11.2011 10:35 3,9 C 12,2 C 4,0 C 6,0 C 6,0 C 2,1 C 94 % 94 % 55 % 1023,0 hPa 0,0 l/m 1,1 km/h (1 Bft) W-SW 247 0 min 0,0 UV-I 3,0 C 6,0 C 0,0 km/h (0 Bft)
09.11.2011 10:40 4,0 C 12,2 C 4,3 C 6,3 C 6,3 C 2,3 C 94 % 94 % 61 % 1023,4 hPa 0,0 l/m 0,8 km/h (0 Bft) SW 225 0 min 0,0 UV-I 3,1 C 6,3 C 3,1 km/h (1 Bft)
09.11.2011 10:45 4,1 C 12,2 C 4,4 C 7,1 C 7,1 C 3,0 C 94 % 94 % 79 % 1023,4 hPa 0,0 l/m 0,0 km/h (0 Bft) W-SW 247 0 min 0,0 UV-I 3,2 C 7,1 C 0,0 km/h (0 Bft)
09.11.2011 10:50 4,3 C 12,2 C 4,6 C 8,1 C 8,1 C 3,8 C 94 % 94 % 100 % 1023,4 hPa 0,0 l/m 0,0 km/h (0 Bft) W-SW 247 5 min 0,0 UV-I 3,4 C 8,1 C 0,0 km/h (0 Bft)
09.11.2011 10:55 4,7 C 12,1 C 4,8 C 10,2 C 10,2 C 5,5 C 94 % 94 % 100 % 1023,4 hPa 0,0 l/m 0,0 km/h (0 Bft) W 270 5 min 0,0 UV-I 3,8 C 10,2 C 0,0 km/h (0 Bft)
09.11.2011 11:00 4,9 C 12,0 C 4,9 C 11,1 C 11,1 C 6,2 C 94 % 94 % 100 % 1023,1 hPa 0,0 l/m 0,0 km/h (0 Bft) S-SW 202 5 min 0,0 UV-I 4,0 C 11,1 C 0,0 km/h (0 Bft)
09.11.2011 11:10 5,6 C 11,9 C 5,6 C 10,2 C 10,2 C 4,6 C 94 % 94 % 100 % 1023,1 hPa 0,0 l/m 0,6 km/h (0 Bft) N 0 10 min 0,0 UV-I 4,7 C 10,2 C 0,0 km/h (0 Bft)
09.11.2011 11:20 6,0 C 11,9 C 6,1 C 9,5 C 9,5 C 3,5 C 94 % 94 % 92 % 1023,1 hPa 0,0 l/m 1,1 km/h (1 Bft) SW 225 10 min 0,0 UV-I 5,1 C 9,5 C 2,1 km/h (1 Bft)
09.11.2011 11:25 6,1 C 11,9 C 6,4 C 9,9 C 9,9 C 3,8 C 94 % 94 % 100 % 1023,1 hPa 0,0 l/m 1,3 km/h (1 Bft) SW 225 5 min 0,0 UV-I 5,2 C 9,9 C 2,4 km/h (1 Bft)
09.11.2011 11:30 6,4 C 11,9 C 6,6 C 9,9 C 9,9 C 3,5 C 94 % 93 % 92 % 1023,1 hPa 0,0 l/m 1,4 km/h (1 Bft) W-SW 247 5 min 0,0 UV-I 5,5 C 9,9 C 3,5 km/h (1 Bft)
09.11.2011 11:35 6,6 C 11,8 C 6,8 C 10,1 C 10,1 C 3,5 C 94 % 93 % 92 % 1023,1 hPa 0,0 l/m 1,3 km/h (1 Bft) S 180 5 min 0,0 UV-I 5,7 C 10,1 C 1,6 km/h (1 Bft)
09.11.2011 11:40 6,8 C 11,8 C 6,9 C 10,2 C 10,2 C 3,4 C 94 % 93 % 89 % 1023,2 hPa 0,0 l/m 1,0 km/h (0 Bft) W-SW 247 5 min 0,0 UV-I 5,9 C 10,2 C 0,0 km/h (0 Bft)
09.11.2011 11:45 7,0 C 11,8 C 7,1 C 11,5 C 11,5 C 4,5 C 94 % 93 % 100 % 1023,2 hPa 0,0 l/m 0,8 km/h (0 Bft) W 270 5 min 0,0 UV-I 6,1 C 11,5 C 2,4 km/h (1 Bft)
09.11.2011 11:50 7,3 C 11,8 C 7,2 C 12,5 C 12,5 C 5,2 C 94 % 93 % 100 % 1023,2 hPa 0,0 l/m 1,0 km/h (0 Bft) W-SW 247 5 min 0,0 UV-I 6,4 C 12,5 C 4,3 km/h (1 Bft)
09.11.2011 11:55 7,5 C 11,8 C 7,5 C 12,4 C 12,4 C 4,9 C 94 % 93 % 100 % 1023,2 hPa 0,0 l/m 0,6 km/h (0 Bft) W-SW 247 5 min 0,0 UV-I 6,6 C 12,4 C 2,9 km/h (1 Bft)
09.11.2011 12:00 7,7 C 11,8 C 7,6 C 12,0 C 12,0 C 4,3 C 93 % 92 % 100 % 1022,9 hPa 0,0 l/m 0,8 km/h (0 Bft) SO 135 5 min 0,0 UV-I 6,6 C 12,0 C 0,0 km/h (0 Bft)
09.11.2011 12:05 8,0 C 11,7 C 7,7 C 11,8 C 11,8 C 3,8 C 93 % 92 % 100 % 1022,9 hPa 0,0 l/m 1,1 km/h (1 Bft) W-SW 247 5 min 0,0 UV-I 6,9 C 11,8 C 4,0 km/h (1 Bft)
09.11.2011 12:10 8,3 C 11,7 C 7,8 C 11,6 C 11,6 C 3,3 C 93 % 91 % 87 % 1022,9 hPa 0,0 l/m 1,0 km/h (0 Bft) N-NW 337 5 min 0,0 UV-I 7,2 C 11,6 C 0,0 km/h (0 Bft)
09.11.2011 12:15 8,4 C 11,7 C 8,0 C 11,6 C 11,6 C 3,2 C 93 % 91 % 84 % 1022,9 hPa 0,0 l/m 0,8 km/h (0 Bft) SW 225 0 min 0,0 UV-I 7,3 C 11,6 C 0,0 km/h (0 Bft)
09.11.2011 12:20 8,5 C 11,7 C 8,1 C 12,0 C 12,0 C 3,5 C 92 % 91 % 92 % 1023,0 hPa 0,0 l/m 0,2 km/h (0 Bft) W-SW 247 5 min 0,0 UV-I 7,3 C 12,0 C 3,1 km/h (1 Bft)
09.11.2011 12:25 8,9 C 11,7 C 8,3 C 11,7 C 11,7 C 2,8 C 91 % 91 % 74 % 1023,0 hPa 0,0 l/m 1,0 km/h (0 Bft) W-SW 247 0 min 0,0 UV-I 7,5 C 11,7 C 2,4 km/h (1 Bft)
09.11.2011 12:30 8,9 C 11,7 C 8,5 C 11,8 C 11,8 C 2,9 C 91 % 90 % 76 % 1023,0 hPa 0,0 l/m 1,3 km/h (1 Bft) SO 135 0 min 0,0 UV-I 7,5 C 11,8 C 0,0 km/h (0 Bft)
09.11.2011 12:35 9,2 C 11,7 C 8,5 C 12,1 C 12,1 C 2,9 C 90 % 90 % 76 % 1023,0 hPa 0,0 l/m 1,0 km/h (0 Bft) W-SW 247 0 min 0,0 UV-I 7,6 C 12,1 C 0,0 km/h (0 Bft)
09.11.2011 12:40 9,3 C 11,8 C 8,6 C 11,8 C 11,8 C 2,5 C 89 % 90 % 66 % 1022,8 hPa 0,0 l/m 1,1 km/h (1 Bft) W-SW 247 0 min 0,0 UV-I 7,6 C 11,8 C 2,6 km/h (1 Bft)
09.11.2011 12:45 9,6 C 11,8 C 8,8 C 11,5 C 11,5 C 1,9 C 88 % 90 % 50 % 1022,8 hPa 0,0 l/m 0,6 km/h (0 Bft) S-SO 157 0 min 0,0 UV-I 7,7 C 11,5 C 0,0 km/h (0 Bft)
09.11.2011 12:50 9,7 C 11,8 C 8,8 C 12,0 C 12,0 C 2,3 C 88 % 90 % 61 % 1022,8 hPa 0,0 l/m 0,3 km/h (0 Bft) O 90 0 min 0,0 UV-I 7,8 C 12,0 C 0,0 km/h (0 Bft)
09.11.2011 12:55 9,8 C 11,8 C 9,1 C 12,4 C 12,4 C 2,6 C 87 % 89 % 68 % 1022,8 hPa 0,0 l/m 0,5 km/h (0 Bft) N-NW 337 0 min 0,0 UV-I 7,7 C 12,4 C 0,0 km/h (0 Bft)
09.11.2011 13:00 9,9 C 11,8 C 9,1 C 12,4 C 12,4 C 2,5 C 86 % 88 % 66 % 1023,2 hPa 0,0 l/m 1,0 km/h (0 Bft) SW 225 0 min 0,0 UV-I 7,7 C 12,4 C 4,2 km/h (1 Bft)
09.11.2011 13:11 10,4 C 11,8 C 9,6 C 14,3 C 14,3 C 3,9 C 83 % 88 % 100 % 1023,2 hPa 0,0 l/m 2,4 km/h (1 Bft) N 0 11 min 0,0 UV-I 7,6 C 14,3 C 2,1 km/h (1 Bft)
09.11.2011 13:20 10,7 C 11,8 C 9,7 C 14,4 C 14,4 C 3,7 C 81 % 86 % 97 % 1022,8 hPa 0,0 l/m 1,1 km/h (1 Bft) O-NO 67 9 min 0,0 UV-I 7,6 C 14,4 C 0,0 km/h (0 Bft)
09.11.2011 13:25 10,8 C 11,9 C 9,8 C 15,3 C 15,3 C 4,5 C 81 % 85 % 100 % 1022,8 hPa 0,0 l/m 0,8 km/h (0 Bft) O 90 5 min 0,0 UV-I 7,7 C 15,3 C 3,4 km/h (1 Bft)
09.11.2011 13:30 10,8 C 11,9 C 9,9 C 15,4 C 15,4 C 4,6 C 80 % 85 % 100 % 1022,8 hPa 0,0 l/m 1,0 km/h (0 Bft) NO 45 5 min 0,0 UV-I 7,5 C 15,4 C 0,0 km/h (0 Bft)
09.11.2011 13:35 10,8 C 11,9 C 10,0 C 15,4 C 15,4 C 4,6 C 79 % 84 % 100 % 1022,8 hPa 0,0 l/m 1,1 km/h (1 Bft) O 90 5 min 0,0 UV-I 7,3 C 15,4 C 0,0 km/h (0 Bft)
09.11.2011 13:40 10,8 C 11,9 C 10,1 C 15,4 C 15,4 C 4,6 C 79 % 84 % 100 % 1023,1 hPa 0,0 l/m 0,5 km/h (0 Bft) W-SW 247 5 min 0,0 UV-I 7,3 C 15,4 C 1,9 km/h (1 Bft)
09.11.2011 13:45 10,9 C 11,9 C 10,3 C 15,8 C 15,8 C 4,9 C 79 % 84 % 100 % 1023,1 hPa 0,0 l/m 0,3 km/h (0 Bft) W 270 5 min 0,0 UV-I 7,4 C 15,8 C 1,6 km/h (1 Bft)
09.11.2011 13:50 11,1 C 11,9 C 10,4 C 15,7 C 15,7 C 4,6 C 79 % 83 % 100 % 1023,1 hPa 0,0 l/m 0,5 km/h (0 Bft) NW 315 5 min 0,0 UV-I 7,6 C 15,7 C 0,0 km/h (0 Bft)
09.11.2011 13:55 11,1 C 11,9 C 10,6 C 15,5 C 15,5 C 4,4 C 77 % 81 % 100 % 1023,1 hPa 0,0 l/m 1,1 km/h (1 Bft) O-NO 67 5 min 0,0 UV-I 7,2 C 15,5 C 1,9 km/h (1 Bft)
09.11.2011 14:00 11,1 C 12,0 C 10,9 C 15,1 C 15,1 C 4,0 C 78 % 81 % 100 % 1022,8 hPa 0,0 l/m 1,8 km/h (1 Bft) O-NO 67 5 min 0,0 UV-I 7,4 C 15,1 C 1,6 km/h (1 Bft)
09.11.2011 14:15 11,2 C 12,0 C 14,3 C 15,6 C 15,6 C 4,4 C 77 % 72 % 100 % 1022,8 hPa 0,0 l/m 0,6 km/h (0 Bft) O 90 15 min 0,0 UV-I 7,3 C 15,6 C 1,9 km/h (1 Bft)
09.11.2011 14:16 11,2 C 12,0 C 14,3 C 15,6 C 15,6 C 4,4 C 77 % 72 % 100 % 1022,8 hPa 0,0 l/m 0,6 km/h (0 Bft) O 90 1 min 0,0 UV-I 7,3 C 15,6 C 1,9 km/h (1 Bft)
09.11.2011 14:20 11,3 C 12,0 C 14,5 C 15,6 C 15,6 C 4,3 C 77 % 71 % 100 % 1022,9 hPa 0,0 l/m 1,0 km/h (0 Bft) S-SW 202 4 min 0,0 UV-I 7,4 C 15,6 C 0,0 km/h (0 Bft)
09.11.2011 14:25 11,3 C 12,1 C 14,5 C 15,6 C 15,6 C 4,3 C 76 % 69 % 100 % 1022,9 hPa 0,0 l/m 1,1 km/h (1 Bft) O 90 5 min 0,0 UV-I 7,2 C 15,6 C 3,2 km/h (1 Bft)
09.11.2011 14:30 11,3 C 12,1 C 13,7 C 15,5 C 15,5 C 4,2 C 76 % 69 % 100 % 1022,9 hPa 0,0 l/m 1,3 km/h (1 Bft) O-SO 112 5 min 0,0 UV-I 7,2 C 15,5 C 4,5 km/h (1 Bft)
09.11.2011 14:35 11,4 C 12,1 C 12,9 C 15,6 C 15,6 C 4,2 C 76 % 71 % 100 % 1022,9 hPa 0,0 l/m 1,0 km/h (0 Bft) O 90 5 min 0,0 UV-I 7,3 C 15,6 C 1,8 km/h (1 Bft)
09.11.2011 14:40 11,4 C 12,1 C 12,5 C 15,6 C 15,6 C 4,2 C 76 % 72 % 100 % 1022,8 hPa 0,0 l/m 1,0 km/h (0 Bft) O-NO 67 5 min 0,0 UV-I 7,3 C 15,6 C 1,9 km/h (1 Bft)
09.11.2011 14:45 11,5 C 12,1 C 12,1 C 15,3 C 15,3 C 3,8 C 76 % 73 % 100 % 1022,8 hPa 0,0 l/m 1,3 km/h (1 Bft) S 180 5 min 0,0 UV-I 7,4 C 15,3 C 0,0 km/h (0 Bft)
09.11.2011 14:50 11,5 C 12,1 C 12,0 C 15,3 C 15,3 C 3,8 C 76 % 74 % 100 % 1022,8 hPa 0,0 l/m 0,8 km/h (0 Bft) O-NO 67 5 min 0,0 UV-I 7,4 C 15,3 C 0,0 km/h (0 Bft)
09.11.2011 14:55 11,5 C 12,1 C 11,5 C 15,5 C 15,5 C 4,0 C 76 % 75 % 100 % 1022,8 hPa 0,0 l/m 0,2 km/h (0 Bft) O-NO 67 5 min 0,0 UV-I 7,4 C 15,5 C 0,0 km/h (0 Bft)
09.11.2011 15:00 11,5 C 12,2 C 11,5 C 15,6 C 15,6 C 4,1 C 76 % 76 % 100 % 1022,8 hPa 0,0 l/m 0,2 km/h (0 Bft) NO 45 5 min 0,0 UV-I 7,4 C 15,6 C 0,0 km/h (0 Bft)
09.11.2011 15:11 11,5 C 12,2 C 11,1 C 15,7 C 15,7 C 4,2 C 76 % 77 % 100 % 1022,8 hPa 0,0 l/m 0,3 km/h (0 Bft) N 0 11 min 0,0 UV-I 7,4 C 15,7 C 0,0 km/h (0 Bft)
09.11.2011 15:20 11,2 C 12,2 C 10,9 C 15,4 C 15,4 C 4,2 C 76 % 78 % 100 % 1023,2 hPa 0,0 l/m 0,0 km/h (0 Bft) O-NO 67 9 min 0,0 UV-I 7,1 C 15,4 C 0,0 km/h (0 Bft)
09.11.2011 15:25 11,2 C 12,2 C 10,7 C 14,8 C 14,8 C 3,6 C 76 % 79 % 95 % 1023,2 hPa 0,0 l/m 0,0 km/h (0 Bft) N-NW 337 5 min 0,0 UV-I 7,1 C 14,8 C 0,0 km/h (0 Bft)
09.11.2011 15:30 11,1 C 12,2 C 10,7 C 13,9 C 13,9 C 2,8 C 76 % 79 % 74 % 1023,2 hPa 0,0 l/m 0,2 km/h (0 Bft) N-NO 22 5 min 0,0 UV-I 7,0 C 13,9 C 0,0 km/h (0 Bft)
09.11.2011 15:35 11,1 C 12,3 C 10,7 C 13,0 C 13,0 C 1,9 C 77 % 79 % 50 % 1023,2 hPa 0,0 l/m 0,2 km/h (0 Bft) N-NO 22 5 min 0,0 UV-I 7,2 C 13,0 C 0,0 km/h (0 Bft)
09.11.2011 15:40 11,1 C 12,3 C 10,5 C 12,9 C 12,9 C 1,8 C 77 % 80 % 47 % 1023,1 hPa 0,0 l/m 0,2 km/h (0 Bft) NO 45 5 min 0,0 UV-I 7,2 C 12,9 C 0,0 km/h (0 Bft)
09.11.2011 15:45 10,9 C 12,3 C 10,2 C 13,0 C 13,0 C 2,1 C 77 % 80 % 55 % 1023,1 hPa 0,0 l/m 0,0 km/h (0 Bft) N-NW 337 5 min 0,0 UV-I 7,0 C 13,0 C 0,0 km/h (0 Bft)
09.11.2011 15:50 10,8 C 12,3 C 10,1 C 12,8 C 12,8 C 2,0 C 77 % 81 % 53 % 1023,1 hPa 0,0 l/m 0,0 km/h (0 Bft) N-NO 22 5 min 0,0 UV-I 6,9 C 12,8 C 0,0 km/h (0 Bft)
09.11.2011 15:55 10,6 C 12,3 C 10,0 C 12,3 C 12,3 C 1,7 C 78 % 81 % 45 % 1023,1 hPa 0,0 l/m 0,0 km/h (0 Bft) N-NW 337 5 min 0,0 UV-I 6,9 C 12,3 C 0,0 km/h (0 Bft)
09.11.2011 16:00 10,6 C 12,3 C 10,0 C 12,1 C 12,1 C 1,5 C 78 % 82 % 39 % 1022,9 hPa 0,0 l/m 0,0 km/h (0 Bft) N-NO 22 5 min 0,0 UV-I 6,9 C 12,1 C 0,0 km/h (0 Bft)
09.11.2011 16:11 10,3 C 12,5 C 9,6 C 11,4 C 11,4 C 1,1 C 79 % 82 % 29 % 1022,9 hPa 0,0 l/m 0,0 km/h (0 Bft) N 0 11 min 0,0 UV-I 6,8 C 11,4 C 0,0 km/h (0 Bft)
09.11.2011 16:20 10,0 C 12,5 C 9,2 C 10,6 C 10,6 C 0,6 C 79 % 82 % 0 % 1023,8 hPa 0,0 l/m 0,0 km/h (0 Bft) N-NO 22 0 min 0,0 UV-I 6,5 C 10,6 C 0,0 km/h (0 Bft)
09.11.2011 16:25 9,9 C 12,5 C 9,1 C 9,9 C 9,9 C 0,0 C 80 % 83 % 0 % 1023,8 hPa 0,0 l/m 0,0 km/h (0 Bft) NO 45 0 min 0,0 UV-I 6,6 C 9,9 C 0,0 km/h (0 Bft)
09.11.2011 16:30 9,7 C 12,6 C 9,1 C 9,6 C 9,4 C 0,0 C 80 % 83 % 0 % 1023,8 hPa 0,0 l/m 0,0 km/h (0 Bft) NO 45 0 min 0,0 UV-I 6,4 C 9,4 C 0,0 km/h (0 Bft)
09.11.2011 16:35 9,5 C 12,6 C 8,8 C 9,3 C 8,8 C 0,0 C 81 % 84 % 0 % 1023,8 hPa 0,0 l/m 0,0 km/h (0 Bft) NO 45 0 min 0,0 UV-I 6,4 C 8,8 C 0,0 km/h (0 Bft)
09.11.2011 16:40 9,4 C 12,6 C 8,8 C 9,1 C 8,4 C 0,0 C 81 % 84 % 0 % 1023,4 hPa 0,0 l/m 0,0 km/h (0 Bft) O-NO 67 0 min 0,0 UV-I 6,3 C 8,4 C 0,0 km/h (0 Bft)
09.11.2011 16:45 9,2 C 12,6 C 8,7 C 8,8 C 8,1 C 0,0 C 81 % 84 % 0 % 1023,4 hPa 0,0 l/m 0,0 km/h (0 Bft) O-NO 67 0 min 0,0 UV-I 6,1 C 8,1 C 0,0 km/h (0 Bft)
09.11.2011 16:50 9,1 C 12,6 C 8,4 C 8,7 C 7,9 C 0,0 C 82 % 84 % 0 % 1023,4 hPa 0,0 l/m 0,0 km/h (0 Bft) O-NO 67 0 min 0,0 UV-I 6,2 C 7,9 C 0,0 km/h (0 Bft)
09.11.2011 16:55 8,8 C 12,7 C 8,3 C 8,4 C 7,6 C 0,0 C 83 % 85 % 0 % 1023,4 hPa 0,0 l/m 0,0 km/h (0 Bft) O-NO 67 0 min 0,0 UV-I 6,1 C 7,6 C 0,0 km/h (0 Bft)
09.11.2011 17:00 8,7 C 12,7 C 8,2 C 8,3 C 7,4 C 0,0 C 83 % 85 % 0 % 1023,6 hPa 0,0 l/m 0,0 km/h (0 Bft) O-NO 67 0 min 0,0 UV-I 6,0 C 7,4 C 0,0 km/h (0 Bft)
09.11.2011 17:04 8,5 C 12,8 C 8,0 C 8,0 C 7,1 C 0,0 C 83 % 86 % 0 % 1023,6 hPa 0,0 l/m 0,0 km/h (0 Bft) O-NO 67 0 min 0,0 UV-I 5,8 C 7,1 C 0,0 km/h (0 Bft)
09.11.2011 17:09 8,3 C 12,8 C 7,9 C 7,9 C 7,0 C 0,0 C 84 % 86 % 0 % 1023,6 hPa 0,0 l/m 0,0 km/h (0 Bft) O-NO 67 0 min 0,0 UV-I 5,8 C 7,0 C 0,0 km/h (0 Bft)
09.11.2011 17:14 8,1 C 12,9 C 7,7 C 7,6 C 6,7 C 0,0 C 84 % 86 % 0 % 1023,6 hPa 0,0 l/m 0,0 km/h (0 Bft) O-NO 67 0 min 0,0 UV-I 5,6 C 6,7 C 0,0 km/h (0 Bft)
09.11.2011 17:18 8,1 C 12,9 C 7,7 C 7,6 C 6,7 C 0,0 C 84 % 86 % 0 % 1023,6 hPa 0,0 l/m 0,0 km/h (0 Bft) O-NO 67 0 min 0,0 UV-I 5,6 C 6,7 C 0,0 km/h (0 Bft)
09.11.2011 17:25 7,7 C 12,9 C 7,2 C 7,3 C 6,6 C 0,0 C 85 % 86 % 0 % 1023,5 hPa 0,0 l/m 0,0 km/h (0 Bft) O-NO 67 0 min 0,0 UV-I 5,3 C 6,6 C 0,0 km/h (0 Bft)
09.11.2011 17:30 7,5 C 13,0 C 7,2 C 7,2 C 6,5 C 0,0 C 85 % 87 % 0 % 1023,5 hPa 0,0 l/m 0,0 km/h (0 Bft) O-NO 67 0 min 0,0 UV-I 5,1 C 6,5 C 0,0 km/h (0 Bft)
09.11.2011 17:35 7,4 C 13,0 C 7,1 C 7,1 C 6,5 C 0,0 C 86 % 88 % 0 % 1023,5 hPa 0,0 l/m 0,0 km/h (0 Bft) O-NO 67 0 min 0,0 UV-I 5,2 C 6,5 C 0,0 km/h (0 Bft)
09.11.2011 17:40 7,5 C 13,0 C 7,1 C 7,2 C 6,5 C 0,0 C 86 % 88 % 0 % 1023,5 hPa 0,0 l/m 0,0 km/h (0 Bft) O-NO 67 0 min 0,0 UV-I 5,3 C 6,5 C 0,0 km/h (0 Bft)
09.11.2011 17:45 7,2 C 13,0 C 6,8 C 6,9 C 6,4 C 0,0 C 86 % 88 % 0 % 1023,5 hPa 0,0 l/m 0,0 km/h (0 Bft) O-NO 67 0 min 0,0 UV-I 5,0 C 6,4 C 0,0 km/h (0 Bft)
09.11.2011 17:50 7,1 C 13,0 C 6,7 C 6,8 C 6,3 C 0,0 C 86 % 88 % 0 % 1023,5 hPa 0,0 l/m 0,0 km/h (0 Bft) O-NO 67 0 min 0,0 UV-I 4,9 C 6,3 C 0,0 km/h (0 Bft)
09.11.2011 17:55 6,9 C 13,0 C 6,5 C 6,7 C 6,2 C 0,0 C 86 % 88 % 0 % 1023,5 hPa 0,0 l/m 0,0 km/h (0 Bft) O-NO 67 0 min 0,0 UV-I 4,7 C 6,2 C 0,0 km/h (0 Bft)
09.11.2011 18:00 6,8 C 13,0 C 6,4 C 6,6 C 6,2 C 0,0 C 87 % 88 % 0 % 1023,8 hPa 0,0 l/m 0,0 km/h (0 Bft) O-NO 67 0 min 0,0 UV-I 4,8 C 6,2 C 0,0 km/h (0 Bft)
09.11.2011 18:04 6,7 C 13,1 C 6,4 C 6,5 C 6,2 C 0,0 C 87 % 89 % 0 % 1023,8 hPa 0,0 l/m 0,0 km/h (0 Bft) O-NO 67 0 min 0,0 UV-I 4,7 C 6,2 C 0,0 km/h (0 Bft)
09.11.2011 18:09 6,6 C 13,2 C 6,3 C 6,4 C 6,0 C 0,0 C 88 % 88 % 0 % 1023,8 hPa 0,0 l/m 0,0 km/h (0 Bft) O-NO 67 0 min 0,0 UV-I 4,8 C 6,0 C 0,0 km/h (0 Bft)
09.11.2011 18:14 6,5 C 13,2 C 6,1 C 6,3 C 6,0 C 0,0 C 88 % 88 % 0 % 1023,8 hPa 0,0 l/m 0,0 km/h (0 Bft) O-NO 67 0 min 0,0 UV-I 4,7 C 6,0 C 0,0 km/h (0 Bft)
09.11.2011 18:19 6,5 C 13,2 C 6,1 C 6,3 C 6,0 C 0,0 C 88 % 88 % 0 % 1023,8 hPa 0,0 l/m 0,0 km/h (0 Bft) O-NO 67 0 min 0,0 UV-I 4,7 C 6,0 C 0,0 km/h (0 Bft)
09.11.2011 18:25 6,2 C 13,2 C 5,9 C 6,0 C 5,6 C 0,0 C 87 % 89 % 0 % 1024,2 hPa 0,0 l/m 0,0 km/h (0 Bft) O-NO 67 0 min 0,0 UV-I 4,2 C 5,6 C 0,0 km/h (0 Bft)
09.11.2011 18:30 6,0 C 13,1 C 5,7 C 5,8 C 5,5 C 0,0 C 87 % 89 % 0 % 1024,2 hPa 0,0 l/m 0,3 km/h (0 Bft) O-NO 67 0 min 0,0 UV-I 4,0 C 5,5 C 1,9 km/h (1 Bft)
09.11.2011 18:35 5,9 C 13,2 C 5,7 C 5,8 C 5,5 C 0,0 C 88 % 89 % 0 % 1024,2 hPa 0,0 l/m 0,5 km/h (0 Bft) O-NO 67 0 min 0,0 UV-I 4,1 C 5,5 C 0,0 km/h (0 Bft)
09.11.2011 18:40 5,9 C 13,2 C 5,6 C 5,7 C 5,4 C 0,0 C 88 % 89 % 0 % 1023,8 hPa 0,0 l/m 0,3 km/h (0 Bft) O-NO 67 0 min 0,0 UV-I 4,1 C 5,4 C 0,0 km/h (0 Bft)
09.11.2011 18:45 5,9 C 13,2 C 5,7 C 5,7 C 5,4 C 0,0 C 89 % 90 % 0 % 1023,8 hPa 0,0 l/m 0,0 km/h (0 Bft) O 90 0 min 0,0 UV-I 4,2 C 5,4 C 0,0 km/h (0 Bft)
09.11.2011 18:50 5,7 C 13,2 C 5,7 C 5,6 C 5,3 C 0,0 C 89 % 89 % 0 % 1023,8 hPa 0,0 l/m 0,0 km/h (0 Bft) O-NO 67 0 min 0,0 UV-I 4,0 C 5,3 C 0,0 km/h (0 Bft)
09.11.2011 18:55 5,6 C 13,2 C 5,3 C 5,4 C 5,1 C 0,0 C 89 % 89 % 0 % 1023,8 hPa 0,0 l/m 0,0 km/h (0 Bft) NO 45 0 min 0,0 UV-I 3,9 C 5,1 C 0,0 km/h (0 Bft)
09.11.2011 19:00 5,4 C 13,2 C 5,3 C 5,3 C 5,0 C 0,0 C 89 % 89 % 0 % 1023,9 hPa 0,0 l/m 0,0 km/h (0 Bft) NO 45 0 min 0,0 UV-I 3,7 C 5,0 C 0,0 km/h (0 Bft)
09.11.2011 19:10 5,3 C 13,2 C 5,1 C 5,2 C 4,9 C 0,0 C 89 % 90 % 0 % 1023,9 hPa 0,0 l/m 0,0 km/h (0 Bft) N 0 0 min 0,0 UV-I 3,6 C 4,9 C 0,0 km/h (0 Bft)
09.11.2011 19:20 5,1 C 13,2 C 5,0 C 5,0 C 4,8 C 0,0 C 89 % 90 % 0 % 1023,9 hPa 0,0 l/m 0,0 km/h (0 Bft) SO 135 0 min 0,0 UV-I 3,4 C 4,8 C 0,0 km/h (0 Bft)
09.11.2011 19:25 4,8 C 13,2 C 4,9 C 4,7 C 4,4 C 0,0 C 89 % 90 % 0 % 1023,9 hPa 0,0 l/m 0,0 km/h (0 Bft) O-NO 67 0 min 0,0 UV-I 3,1 C 4,4 C 0,0 km/h (0 Bft)
09.11.2011 19:30 4,9 C 13,1 C 4,7 C 4,7 C 4,3 C 0,0 C 89 % 90 % 0 % 1023,9 hPa 0,0 l/m 0,0 km/h (0 Bft) O-NO 67 0 min 0,0 UV-I 3,2 C 4,3 C 0,0 km/h (0 Bft)
09.11.2011 19:35 4,7 C 13,1 C 4,7 C 4,6 C 4,4 C 0,0 C 89 % 90 % 0 % 1023,9 hPa 0,0 l/m 0,0 km/h (0 Bft) O-NO 67 0 min 0,0 UV-I 3,0 C 4,4 C 0,0 km/h (0 Bft)
09.11.2011 19:40 4,7 C 13,1 C 4,6 C 4,7 C 4,6 C 0,0 C 89 % 90 % 0 % 1024,4 hPa 0,0 l/m 0,0 km/h (0 Bft) O-NO 67 0 min 0,0 UV-I 3,0 C 4,6 C 0,0 km/h (0 Bft)
09.11.2011 19:45 4,7 C 13,1 C 4,5 C 4,7 C 4,6 C 0,0 C 89 % 90 % 0 % 1024,4 hPa 0,0 l/m 0,0 km/h (0 Bft) O-NO 67 0 min 0,0 UV-I 3,0 C 4,6 C 0,0 km/h (0 Bft)
09.11.2011 19:50 4,7 C 13,1 C 4,5 C 4,7 C 4,7 C 0,0 C 90 % 90 % 0 % 1024,4 hPa 0,0 l/m 0,0 km/h (0 Bft) O-NO 67 0 min 0,0 UV-I 3,2 C 4,7 C 0,0 km/h (0 Bft)
09.11.2011 19:55 4,7 C 13,1 C 4,4 C 4,7 C 4,6 C 0,0 C 90 % 90 % 0 % 1024,4 hPa 0,0 l/m 0,0 km/h (0 Bft) O-NO 67 0 min 0,0 UV-I 3,2 C 4,6 C 0,0 km/h (0 Bft)
09.11.2011 20:00 4,5 C 13,1 C 4,5 C 4,4 C 4,2 C 0,0 C 90 % 90 % 0 % 1024,3 hPa 0,0 l/m 0,0 km/h (0 Bft) W-SW 247 0 min 0,0 UV-I 3,0 C 4,2 C 0,0 km/h (0 Bft)
09.11.2011 20:10 4,3 C 13,1 C 4,1 C 4,0 C 3,5 C 0,0 C 89 % 90 % 0 % 1024,3 hPa 0,0 l/m 0,0 km/h (0 Bft) N 0 0 min 0,0 UV-I 2,7 C 3,5 C 0,0 km/h (0 Bft)
09.11.2011 20:20 3,9 C 13,1 C 4,0 C 3,6 C 3,0 C 0,0 C 90 % 90 % 0 % 1024,2 hPa 0,0 l/m 0,0 km/h (0 Bft) W-SW 247 0 min 0,0 UV-I 2,4 C 3,0 C 0,0 km/h (0 Bft)
09.11.2011 20:25 3,9 C 13,1 C 3,9 C 3,5 C 2,8 C 0,0 C 90 % 90 % 0 % 1024,2 hPa 0,0 l/m 0,0 km/h (0 Bft) W-SW 247 0 min 0,0 UV-I 2,4 C 2,8 C 0,0 km/h (0 Bft)
09.11.2011 20:30 3,7 C 13,1 C 3,9 C 3,4 C 2,9 C 0,0 C 90 % 90 % 0 % 1024,2 hPa 0,0 l/m 0,0 km/h (0 Bft) W-SW 247 0 min 0,0 UV-I 2,2 C 2,9 C 0,0 km/h (0 Bft)
09.11.2011 20:35 3,7 C 13,1 C 3,6 C 3,4 C 2,8 C 0,0 C 90 % 90 % 0 % 1024,2 hPa 0,0 l/m 0,0 km/h (0 Bft) W-SW 247 0 min 0,0 UV-I 2,2 C 2,8 C 0,0 km/h (0 Bft)
09.11.2011 20:40 3,6 C 13,1 C 3,6 C 3,4 C 2,9 C 0,0 C 90 % 91 % 0 % 1024,2 hPa 0,0 l/m 0,0 km/h (0 Bft) SW 225 0 min 0,0 UV-I 2,1 C 2,9 C 0,0 km/h (0 Bft)
09.11.2011 20:45 3,5 C 13,1 C 3,5 C 3,2 C 2,6 C 0,0 C 90 % 91 % 0 % 1024,2 hPa 0,0 l/m 0,0 km/h (0 Bft) W-SW 247 0 min 0,0 UV-I 2,0 C 2,6 C 0,0 km/h (0 Bft)
09.11.2011 20:50 3,4 C 13,1 C 3,5 C 3,1 C 2,5 C 0,0 C 90 % 91 % 0 % 1024,2 hPa 0,0 l/m 0,0 km/h (0 Bft) SW 225 0 min 0,0 UV-I 1,9 C 2,5 C 0,0 km/h (0 Bft)
09.11.2011 20:55 3,3 C 13,0 C 3,3 C 2,9 C 2,2 C 0,0 C 89 % 91 % 0 % 1024,2 hPa 0,0 l/m 0,0 km/h (0 Bft) SW 225 0 min 0,0 UV-I 1,7 C 2,2 C 0,0 km/h (0 Bft)
09.11.2011 21:00 3,1 C 13,0 C 3,2 C 2,7 C 2,0 C 0,0 C 89 % 91 % 0 % 1024,4 hPa 0,0 l/m 0,0 km/h (0 Bft) W-SW 247 0 min 0,0 UV-I 1,5 C 2,0 C 0,0 km/h (0 Bft)
09.11.2011 21:11 2,8 C 13,0 C 3,1 C 2,5 C 1,8 C 0,0 C 89 % 91 % 0 % 1024,4 hPa 0,0 l/m 0,0 km/h (0 Bft) N 0 0 min 0,0 UV-I 1,2 C 1,8 C 0,0 km/h (0 Bft)
09.11.2011 21:20 2,7 C 13,0 C 2,8 C 2,5 C 2,1 C 0,0 C 90 % 91 % 0 % 1024,2 hPa 0,0 l/m 0,0 km/h (0 Bft) O-NO 67 0 min 0,0 UV-I 1,2 C 2,1 C 0,0 km/h (0 Bft)
09.11.2011 21:25 2,7 C 13,0 C 2,8 C 2,5 C 2,2 C 0,0 C 90 % 91 % 0 % 1024,2 hPa 0,0 l/m 0,0 km/h (0 Bft) O-NO 67 0 min 0,0 UV-I 1,2 C 2,2 C 0,0 km/h (0 Bft)
09.11.2011 21:30 2,7 C 13,0 C 2,9 C 2,5 C 2,2 C 0,0 C 90 % 91 % 0 % 1024,2 hPa 0,0 l/m 0,0 km/h (0 Bft) O 90 0 min 0,0 UV-I 1,2 C 2,2 C 0,0 km/h (0 Bft)
09.11.2011 21:35 2,7 C 13,0 C 2,9 C 2,5 C 2,2 C 0,0 C 90 % 91 % 0 % 1024,2 hPa 0,0 l/m 0,0 km/h (0 Bft) W-SW 247 0 min 0,0 UV-I 1,2 C 2,2 C 0,0 km/h (0 Bft)
09.11.2011 21:45 2,7 C 13,0 C 3,1 C 2,6 C 2,4 C 0,0 C 91 % 92 % 0 % 1024,7 hPa 0,0 l/m 1,3 km/h (1 Bft) W-SW 247 0 min 0,0 UV-I 1,4 C 2,4 C 3,1 km/h (1 Bft)
09.11.2011 21:50 2,7 C 13,0 C 3,0 C 2,6 C 2,5 C 0,0 C 91 % 92 % 0 % 1024,7 hPa 0,0 l/m 2,1 km/h (1 Bft) SW 225 0 min 0,0 UV-I 1,4 C 2,5 C 5,1 km/h (1 Bft)
09.11.2011 21:55 2,7 C 13,0 C 3,1 C 2,6 C 2,3 C 0,0 C 91 % 92 % 0 % 1024,7 hPa 0,0 l/m 2,9 km/h (1 Bft) W-SW 247 0 min 0,0 UV-I 1,4 C 2,3 C 3,2 km/h (1 Bft)
09.11.2011 22:00 2,7 C 13,0 C 3,1 C 2,7 C 2,6 C 0,0 C 91 % 92 % 0 % 1025,1 hPa 0,0 l/m 2,6 km/h (1 Bft) SW 225 0 min 0,0 UV-I 1,4 C 2,6 C 7,1 km/h (2 Bft)
09.11.2011 22:12 2,7 C 13,0 C 3,1 C 2,7 C 2,7 C 0,0 C 91 % 92 % 0 % 1025,1 hPa 0,0 l/m 0,8 km/h (0 Bft) N 0 0 min 0,0 UV-I 1,4 C 2,7 C 0,0 km/h (0 Bft)
09.11.2011 22:20 2,7 C 13,0 C 3,2 C 2,7 C 2,6 C 0,0 C 91 % 92 % 0 % 1025,2 hPa 0,0 l/m 0,0 km/h (0 Bft) S-SO 157 0 min 0,0 UV-I 1,4 C 2,6 C 0,0 km/h (0 Bft)
09.11.2011 22:25 2,7 C 13,0 C 3,2 C 2,7 C 2,7 C 0,0 C 91 % 92 % 0 % 1025,2 hPa 0,0 l/m 0,0 km/h (0 Bft) S-SO 157 0 min 0,0 UV-I 1,4 C 2,7 C 1,8 km/h (1 Bft)
09.11.2011 22:30 2,7 C 13,0 C 3,2 C 2,7 C 2,7 C 0,0 C 91 % 92 % 0 % 1025,2 hPa 0,0 l/m 0,2 km/h (0 Bft) S-SO 157 0 min 0,0 UV-I 1,4 C 2,7 C 0,0 km/h (0 Bft)
09.11.2011 22:35 2,6 C 13,0 C 3,2 C 2,7 C 2,7 C 0,1 C 91 % 92 % 0 % 1025,2 hPa 0,0 l/m 0,2 km/h (0 Bft) W 270 0 min 0,0 UV-I 1,3 C 2,7 C 0,0 km/h (0 Bft)
09.11.2011 22:40 2,6 C 13,0 C 3,3 C 2,7 C 2,7 C 0,1 C 91 % 92 % 0 % 1025,2 hPa 0,0 l/m 0,0 km/h (0 Bft) SW 225 0 min 0,0 UV-I 1,3 C 2,7 C 0,0 km/h (0 Bft)
09.11.2011 22:45 2,7 C 12,9 C 3,2 C 2,8 C 2,8 C 0,1 C 91 % 92 % 0 % 1025,2 hPa 0,0 l/m 0,0 km/h (0 Bft) W-SW 247 0 min 0,0 UV-I 1,4 C 2,8 C 0,0 km/h (0 Bft)
09.11.2011 22:50 2,7 C 12,9 C 3,3 C 2,9 C 2,9 C 0,2 C 91 % 92 % 0 % 1025,2 hPa 0,0 l/m 0,0 km/h (0 Bft) W-SW 247 0 min 0,0 UV-I 1,4 C 2,9 C 0,0 km/h (0 Bft)
09.11.2011 22:55 2,7 C 12,9 C 3,3 C 2,9 C 2,9 C 0,2 C 92 % 92 % 0 % 1025,2 hPa 0,0 l/m 0,0 km/h (0 Bft) S 180 0 min 0,0 UV-I 1,5 C 2,9 C 0,0 km/h (0 Bft)
09.11.2011 23:00 2,8 C 12,9 C 3,3 C 2,9 C 2,9 C 0,1 C 92 % 92 % 0 % 1025,9 hPa 0,0 l/m 0,0 km/h (0 Bft) W 270 0 min 0,0 UV-I 1,6 C 2,9 C 0,0 km/h (0 Bft)
09.11.2011 23:04 2,8 C 12,9 C 3,5 C 3,0 C 3,0 C 0,2 C 92 % 93 % 0 % 1025,9 hPa 0,0 l/m 0,3 km/h (0 Bft) W-SW 247 0 min 0,0 UV-I 1,6 C 3,0 C 0,0 km/h (0 Bft)
09.11.2011 23:09 2,9 C 12,9 C 3,4 C 3,0 C 3,0 C 0,1 C 92 % 93 % 0 % 1025,9 hPa 0,0 l/m 0,3 km/h (0 Bft) W-SW 247 0 min 0,0 UV-I 1,7 C 3,0 C 0,0 km/h (0 Bft)
09.11.2011 23:14 2,8 C 12,9 C 3,6 C 3,0 C 3,0 C 0,2 C 92 % 93 % 0 % 1025,9 hPa 0,0 l/m 0,0 km/h (0 Bft) W-SW 247 0 min 0,0 UV-I 1,6 C 3,0 C 0,0 km/h (0 Bft)
09.11.2011 23:18 2,8 C 12,9 C 3,6 C 3,0 C 3,0 C 0,2 C 92 % 93 % 0 % 1025,9 hPa 0,0 l/m 0,0 km/h (0 Bft) W-SW 247 0 min 0,0 UV-I 1,6 C 3,0 C 0,0 km/h (0 Bft)
09.11.2011 23:25 2,9 C 12,9 C 3,6 C 3,1 C 3,1 C 0,2 C 92 % 93 % 0 % 1025,0 hPa 0,0 l/m 0,0 km/h (0 Bft) W-SW 247 0 min 0,0 UV-I 1,7 C 3,1 C 0,0 km/h (0 Bft)
09.11.2011 23:30 2,9 C 12,9 C 3,7 C 3,2 C 3,2 C 0,3 C 92 % 93 % 0 % 1025,0 hPa 0,0 l/m 0,0 km/h (0 Bft) S 180 0 min 0,0 UV-I 1,7 C 3,2 C 0,0 km/h (0 Bft)
09.11.2011 23:35 2,9 C 12,9 C 3,6 C 3,2 C 3,2 C 0,3 C 92 % 93 % 0 % 1025,0 hPa 0,0 l/m 0,0 km/h (0 Bft) S-SO 157 0 min 0,0 UV-I 1,7 C 3,2 C 0,0 km/h (0 Bft)
09.11.2011 23:40 3,1 C 12,9 C 3,6 C 3,2 C 3,2 C 0,1 C 92 % 93 % 0 % 1025,1 hPa 0,0 l/m 0,0 km/h (0 Bft) W-SW 247 0 min 0,0 UV-I 1,9 C 3,2 C 0,0 km/h (0 Bft)
09.11.2011 23:45 3,1 C 12,9 C 3,7 C 3,2 C 3,2 C 0,1 C 92 % 93 % 0 % 1025,1 hPa 0,0 l/m 0,0 km/h (0 Bft) W-SW 247 0 min 0,0 UV-I 1,9 C 3,2 C 0,0 km/h (0 Bft)
09.11.2011 23:50 3,1 C 12,9 C 3,7 C 3,3 C 3,3 C 0,2 C 92 % 93 % 0 % 1025,1 hPa 0,0 l/m 0,0 km/h (0 Bft) SW 225 0 min 0,0 UV-I 1,9 C 3,3 C 0,0 km/h (0 Bft)
09.11.2011 23:55 3,0 C 12,9 C 3,5 C 3,3 C 3,3 C 0,3 C 92 % 93 % 0 % 1025,1 hPa 0,0 l/m 0,0 km/h (0 Bft) O-NO 67 0 min 0,0 UV-I 1,8 C 3,3 C 0,0 km/h (0 Bft)
_ Min-Zeit 06:55 12:05 07:25 06:55 06:55 00:00 14:25 14:25 00:00 01:19 - 00:00 - - - 00:00 06:55 06:55 00:00
Minimum _ -1,5 C 11,7 C -0,7 C -1,8 C -2,4 C 0,0 C 76 % 69 % 0 % 1021,4 hPa - 0,0 km/h (0 Bft) - - - 0,0 UV-I -2,6 C -2,4 C 0,0 km/h (0 Bft)
_ Max-Zeit 14:45 00:00 14:20 13:45 13:45 11:00 10:20 10:25 10:50 23:00 00:00 21:55 - - 14:15 00:00 12:50 13:45 22:00
Maximum _ 11,5 C 13,4 C 14,5 C 15,8 C 15,8 C 6,2 C 94 % 94 % 100 % 1025,9 hPa 0,0 l/m 2,9 km/h
W-SW (1 Bft)
- - 15 min 0,0 UV-I 7,8 C 15,8 C 7,1 km/h
SW (2 Bft)
Durchschnitt _ 3,7 C 12,7 C 4,1 C 4,5 C 4,2 C 1,0 C 89 % 89 % 23 % 1023,0 hPa #0,0 l/m 0,3 km/h (0 Bft) W-SW - #4:41 h 0,0 UV-I 2,0 C 4,2 C 0,4 km/h (0 Bft)
2011 www.wetterstation-wechselburg.de